JINZIJING 1 03

导读 | 星芒AI

JINZIJING 1 03 是一颗由中国研制的遥感卫星,主要用于高分辨率对地观测任务,服务于资源调查、环境监测、城市规划等领域。该卫星具备高精度成像能力,能够提供清晰的地表图像数据。它属于金紫荆系列卫星之一,于近期成功发射并进入预定轨道,标志着中国在商业遥感卫星技术方面持续进步。

基本信息
目录编号:
49813
目录名称:
JINZIJING 1 03
国际标识:
2021-117B
轨道中心:
EARTH
卫星名称:
JINZIJING 1 03
卫星全名:
--
卫星状态:
已陨落 最后检测时间 2024-02-14
发射日期:
2021-12-07 UTC
国别 :
中国 (CN)
星等 :
--
轨道信息
数据来源 国际轨道数据
星历时间: 2024-02-13T19:23:17+0800
轨道信息已过期629天
半长轴: 6519.673km
偏心率: 0.0013039
轨道倾角: 97.283°
近地点辐角 266.770°
升交点赤经 136.357°
平近点角 93.211°
近地点: 133.036km
远地点: 150.04km
周期: 87.317分钟
每日圈数: 16.491651
详细信息
使用方式:
暂无